Regional Weather Roundup
Issued by NWS

Home | Current Version | Previous Version | Text Only | Print | Product List | Glossary On
Versions: 1 2 3 4 5 6 7 8 9 10 11 12 13 14 15 16 17 18 19 20 21 22 23 24 25 26 27 28 29 30 31 32 33 34 35 36 37 38 39 40 41 42 43 44 45 46 47 48 49 50
525
ASUS43 KOAX 191610
RWRNE

WEATHER ROUNDUP FOR NEBRASKA
NATIONAL WEATHER SERVICE OMAHA NE
1100 AM CDT THU OCT 19 2017

NOTES: SATELLITE DATA IS BEING USED TO AUGMENT CLOUD COVER ABOVE
       12000 FEET.
       "FAIR" INDICATES FEW OR NO CLOUDS BELOW 12,000 FEET WITH NO
       SIGNIFICANT WEATHER AND/OR OBSTRUCTIONS TO VISIBILITY.


NEZ001>004-019>022-054>056-191700-
NEBRASKA PANHANDLE

CITY           SKY/WX    TMP DP  RH WIND       PRES   REMARKS
SCOTTSBLUFF    SUNNY     52  33  48 SE5       30.02S
ALLIANCE       SUNNY     64  30  27 MISG      30.00S
CHADRON        SUNNY     65  26  23 S3        29.94F
GORDON         FAIR      61  33  34 SW13G21   29.97F
KIMBALL        SUNNY     62  30  30 CALM      30.05F
SIDNEY         SUNNY     64  31  28 SW12      30.05S
$$

NEZ057>060-069>072-079>082-191700-
SOUTHWEST NEBRASKA

CITY           SKY/WX    TMP DP  RH WIND       PRES   REMARKS
NORTH PLATTE   SUNNY     54  42  64 S3        30.06F
IMPERIAL       SUNNY     59  36  42 S7        30.05F
LEXINGTON      SUNNY     55  43  62 CALM      30.07F
MCCOOK         SUNNY     54  41  61 CALM      30.07S
OGALLALA       SUNNY     57  39  52 CALM      30.04F
$$

NEZ005>010-023>029-035>040-094-191700-
NORTH CENTRAL NEBRASKA

CITY           SKY/WX    TMP DP  RH WIND       PRES   REMARKS
VALENTINE      SUNNY     67  38  34 SW22      29.95F
AINSWORTH      SUNNY     61  40  46 SW15G22   29.99S
BROKEN BOW     SUNNY     60  43  53 S6        30.05F
O`NEILL        SUNNY     61  45  56 S13       30.02S
ORD            SUNNY     56  41  57 MISG      30.05S
THEDFORD       SUNNY     64  38  38 SW13G23   30.03S
$$

NEZ041-046>049-061>064-073>077-083>087-191700-
SOUTH CENTRAL NEBRASKA

CITY           SKY/WX    TMP DP  RH WIND       PRES   REMARKS
GRAND ISLAND   SUNNY     60  47  61 S3        30.07F
AURORA         SUNNY     62  50  63 S6        30.07S
HASTINGS       SUNNY     61  47  59 CALM      30.07F
HEBRON         SUNNY     59  51  73 CALM      30.07S
HOLDREGE       SUNNY     62  46  56 S7        30.07S
KEARNEY        SUNNY     60  45  57 S3        30.07F
YORK           SUNNY     63  52  67 CALM      30.07S
$$

NEZ011>018-030>034-042>045-191700-
NORTHEAST NEBRASKA

CITY           SKY/WX    TMP DP  RH WIND       PRES   REMARKS
NORFOLK        SUNNY     63  49  60 S14       30.04F
ALBION         SUNNY     61  48  62 S7        30.06F
BLAIR          SUNNY     65  50  60 SE7       30.08S
COLUMBUS       SUNNY     61  50  67 S6        30.07F
FREMONT        SUNNY     62  51  67 SE9       30.08S
TEKAMAH        SUNNY     64  44  48 SE10      30.08S
WAYNE          SUNNY     62  48  60 S17       30.06S
$$

NEZ050>053-065>068-078-088>093-191700-
SOUTHEAST NEBRASKA

CITY           SKY/WX    TMP DP  RH WIND       PRES   REMARKS
LINCOLN        SUNNY     62  50  64 CALM      30.08F
OMAHA EPPLEY   MOSUNNY   64  49  57 SE9       30.09S
BEATRICE       SUNNY     62  52  69 S5        30.07F
FALLS CITY     SUNNY     62  53  72 CALM      30.09S
NEBRASKA CITY  SUNNY     63  55  77 SE5       30.08F
PLATTSMOUTH    SUNNY     63  54  71 SE9       30.08F
$$

NEZ044-045-051>053-067-191700-
OMAHA AREA

CITY           SKY/WX    TMP DP  RH WIND       PRES   REMARKS
OMAHA EPPLEY   MOSUNNY   64  49  57 SE9       30.09S
BLAIR          SUNNY     65  50  60 SE7       30.08S
FREMONT        SUNNY     62  51  67 SE9       30.08S
MILLARD        SUNNY     64  53  68 SE8       30.08S
OFFUTT AFB     SUNNY     65  51  62 SE12      30.08S
PLATTSMOUTH    SUNNY     63  54  71 SE9       30.08F
WAHOO          FAIR      62  50  66 SE9       30.08S
$$




USA.gov is the U.S. government's official web portal to all federal, state and local government web resources and services.